Change the Weather History Date:

Tuesday, October 30, 2012

  Actual Average Record
Temperature  
Mean Temperature 58 °F 41 °F  
Max Temperature 65 °F 51 °F 70 °F (1950)
Min Temperature 51 °F 32 °F 18 °F (1966)
Degree Days  
Heating Degree Days 7 24  
Month to date heating degree days 473 577  
Since 1 July heating degree days 796 932  
Cooling Degree Days 0 0  
Month to date cooling degree days 0 0  
Year to date cooling degree days 291 263  
Growing Degree Days 8 (Base 50)    
Moisture  
Dew Point 54 °F    
Average Humidity 82    
Maximum Humidity 100    
Minimum Humidity 63    
Precipitation  
Precipitation 1.16 in 0.11 in 1.16 in (2012)
Month to date precipitation 3.49 3.34  
Year to date precipitation 29.40 31.26  
Sea Level Pressure  
Sea Level Pressure 29.53 in    
Wind  
Wind Speed 8 mph (SE)    
Max Wind Speed 25 mph    
Max Gust Speed 35 mph    
Visibility 7 miles    
Events Rain    
T = Trace of Precipitation, MM = Missing Value Source: NWS Daily Summary

Daily Weather History Graph

Daily Weather History Graph

Search for Another Location

Airport or City:

Trip Planner

Search our weather history database for the weather conditions in past years. The results will help you decide how hot, cold, wet, or windy it might be!

Date:

Astronomy

Oct. 30, 2012 Rise Set
Actual Time 7:25 AM EDT 5:42 PM EDT
Civil Twilight 6:54 AM EDT 6:12 PM EDT
Nautical Twilight 6:20 AM EDT 6:46 PM EDT
Astronomical Twilight 5:47 AM EDT 7:19 PM EDT
Moon 6:06 PM EDT 8:11 AM EDT
Length of Visible Light 11h 17m
Length of Day
10h 17m
Full, 99% of the Moon is Illuminated
Oct 30
Full
Nov 6
Last Quarter
Nov 13
New
Nov 20
First Quarter
Nov 28
Full

Hourly Weather History & Observations

Time (EDT) Temp. Dew Point Humidity Pressure Visibility Wind Dir Wind Speed Gust Speed Precip Events Conditions
12:51 AM 55.9 °F 55.9 °F 100% 29.42 in 4.0 mi East 6.9 mph - 0.13 in Rain Light Rain
1:51 AM 55.9 °F 55.9 °F 100% 29.42 in 4.0 mi NE 6.9 mph - 0.04 in Rain Rain
2:25 AM 55.4 °F 55.4 °F 100% 29.42 in 4.0 mi ENE 8.1 mph - 0.07 in Rain Rain
2:47 AM 55.4 °F 55.4 °F 100% 29.42 in 9.0 mi ENE 4.6 mph - 0.08 in Rain Light Rain
3:13 AM 55.4 °F 55.4 °F 100% 29.43 in 3.0 mi Calm Calm - 0.05 in Rain Light Rain
3:46 AM 57.2 °F 55.4 °F 94% 29.42 in 8.0 mi ESE 8.1 mph - 0.11 in Rain Light Rain
3:51 AM 57.9 °F 55.9 °F 93% 29.42 in 8.0 mi East 12.7 mph 19.6 mph 0.11 in Rain Light Rain
4:51 AM 57.9 °F 55.9 °F 93% 29.43 in 10.0 mi ESE 10.4 mph - 0.00 in   Overcast
5:28 AM 57.2 °F 55.4 °F 94% 29.44 in 10.0 mi ESE 10.4 mph - N/A   Mostly Cloudy
5:51 AM 57.9 °F 55.9 °F 93% 29.45 in 10.0 mi ESE 12.7 mph 19.6 mph N/A   Overcast
6:22 AM 57.2 °F 53.6 °F 88% 29.48 in 3.0 mi SSE 15.0 mph 20.7 mph 0.12 in Rain Heavy Rain
6:25 AM 55.4 °F 53.6 °F 94% 29.47 in 1.8 mi South 10.4 mph 20.7 mph 0.17 in Rain Heavy Rain
6:33 AM 55.4 °F 53.6 °F 94% 29.46 in 3.0 mi SE 6.9 mph 17.3 mph 0.18 in Rain Light Rain
6:51 AM 55.4 °F 53.6 °F 94% 29.48 in 10.0 mi South 3.5 mph 16.1 mph N/A   Overcast
7:36 AM 57.2 °F 53.6 °F 88% 29.50 in 10.0 mi SE 5.8 mph - 0.00 in   Overcast
7:51 AM 57.9 °F 55.0 °F 90% 29.52 in 10.0 mi SE 8.1 mph - 0.00 in   Overcast
8:51 AM 55.4 °F 53.6 °F 94% 29.54 in 9.0 mi Calm Calm - N/A Rain Light Rain
9:31 AM 57.2 °F 53.6 °F 88% 29.54 in 10.0 mi East 6.9 mph - 0.01 in   Overcast
9:51 AM 57.0 °F 54.0 °F 89% 29.56 in 5.0 mi ESE 4.6 mph - 0.02 in Rain Light Rain
10:51 AM 55.4 °F 53.6 °F 94% 29.57 in 3.0 mi South 12.7 mph 24.2 mph N/A Rain Light Rain
10:59 AM 55.4 °F 53.6 °F 94% 29.56 in 4.0 mi South 10.4 mph 23.0 mph 0.01 in Rain Light Rain
11:51 AM 61.0 °F 55.0 °F 81% 29.57 in 10.0 mi SSE 9.2 mph 19.6 mph 0.01 in   Overcast
12:51 PM 62.1 °F 55.0 °F 78% 29.57 in 10.0 mi SE 15.0 mph 24.2 mph N/A   Overcast
1:13 PM 60.8 °F 55.4 °F 82% 29.58 in 8.0 mi ESE 12.7 mph 26.5 mph 0.01 in Rain Light Rain
1:51 PM 63.0 °F 55.0 °F 75% 29.57 in 10.0 mi SE 15.0 mph 21.9 mph 0.01 in   Mostly Cloudy
2:51 PM 62.6 °F 53.6 °F 72% 29.57 in 10.0 mi SE 10.4 mph - N/A   Mostly Cloudy
3:51 PM 64.0 °F 51.1 °F 63% 29.58 in 10.0 mi SE 13.8 mph 21.9 mph N/A   Overcast
4:51 PM 60.1 °F 54.0 °F 80% 29.58 in 10.0 mi ESE 12.7 mph - N/A   Mostly Cloudy
5:51 PM 59.0 °F 53.1 °F 81% 29.59 in 10.0 mi ESE 8.1 mph 17.3 mph N/A   Mostly Cloudy
6:39 PM 59.0 °F 53.6 °F 82% 29.59 in 10.0 mi SE 4.6 mph - N/A   Overcast
6:51 PM 59.0 °F 53.1 °F 81% 29.60 in 10.0 mi ESE 4.6 mph - N/A   Overcast
7:26 PM 57.2 °F 53.6 °F 88% 29.58 in 10.0 mi Calm Calm - 0.00 in Rain Light Rain
7:51 PM 57.9 °F 53.1 °F 84% 29.58 in 10.0 mi ESE 10.4 mph 17.3 mph 0.00 in   Overcast
8:51 PM 57.2 °F 53.6 °F 88% 29.57 in 10.0 mi Calm Calm - N/A Rain Light Rain
9:51 PM 54.0 °F 53.1 °F 97% 29.57 in 10.0 mi South 3.5 mph - 0.05 in Rain Light Rain
10:29 PM 53.6 °F 51.8 °F 94% 29.57 in 2.0 mi SSE 6.9 mph - 0.14 in Rain Heavy Rain
10:46 PM 53.6 °F 51.8 °F 94% 29.59 in 1.8 mi SE 11.5 mph 18.4 mph 0.33 in Rain Heavy Rain
10:51 PM 51.8 °F 51.8 °F 100% 29.59 in 1.8 mi SE 10.4 mph 18.4 mph N/A Rain Heavy Rain
10:57 PM 53.6 °F 51.8 °F 94% 29.59 in 2.0 mi SE 8.1 mph - 0.05 in Rain Heavy Rain
11:03 PM 53.6 °F 51.8 °F 94% 29.57 in 4.0 mi SE 5.8 mph - 0.07 in Rain Rain
11:11 PM 53.6 °F 51.8 °F 94% 29.56 in 5.0 mi SE 5.8 mph - 0.09 in Rain Rain
11:51 PM 51.1 °F 51.1 °F 100% 29.57 in 10.0 mi Calm Calm - 0.11 in   Overcast